GREENCUBE

Last updated on Tue Jan 14 2025 00:03:00 GMT+0000 (Coordinated Universal Time)

1 53106U 22080B 25013.55270770 -.00000003 00000+0 00000+0 0 9993 2 53106 70.1424 119.4379 0008206 58.9554 301.1910 6.42557525 58785
UTC large
Height (km)
Speed (km/s)
/
Latitude / Longitude
Inclination (degrees)
Orbital Period (minutes)
Azimuth
Elevation
Range (km)
Doppler Factor

Next 0 passes for location: London (51.5072 / 0.1276)

Sorry there are no passes over London.